Home > Weather > Bhinga > Past weeks

Flag for India Weather for the Past 2 Weeks in Bhinga, Uttar Pradesh, India

Now
73 °F

Broken clouds.


Feels Like: 77 °F
Forecast: 54 / 76 °F
Wind: 12 mph from Northeast

Location: Lucknow / Amausi

Current Time: Feb 7, 2016 at 2:28:44 PM

Latest Report: Feb 7, 2016 at 1:30 PM


Visibility: 1 mi

Pressure: 29.92 "Hg

Humidity: 50%

Dew point: 54 °F

Location of BhingaLocation

Historic Weather in Bhinga — Graph

°F

Bhinga Temperature Yesterday

Maximum temperature yesterday: 77 °F (at 1:30 PM)
Minimum temperature yesterday: 48 °F (at 6:00 AM)
Average temperature yesterday: 63 °F

High & Low Weather Summary for the Past Weeks

 TemperatureHumidityPressure
High82 °F (Jan 31, 2:00 PM)100% (Jan 24, 8:00 AM)30.15 "Hg (Jan 24, 8:00 AM)
Low41 °F (Jan 24, 5:30 AM)29% (Feb 2, 1:30 PM)29.65 "Hg (Jan 23, 3:00 PM)
Average63 °F65%29.99 "Hg
* Reported Jan 23 1:00 PM — Feb 7 1:00 PM, Bhinga, Weather by CustomWeather, © 2016

Note: Actual official high and low records may vary slightly from our data, if they occured in-between our weather recording intervals... More about our weather records

Advertising

Bhinga Weather History for the Previous 24 Hours

 ConditionsComfort  
Time TempWeatherWind HumidityBarometerVisibility
1:00 PM
Sun, Feb 7
72 °FBroken clouds.12 mph57%29.95 "Hg1 mi
12:30 PM72 °FBroken clouds.12 mph57%29.95 "Hg1 mi
12:00 PM70 °FBroken clouds.13 mph60%29.95 "Hg1 mi
10:30 AM68 °FBroken clouds.12 mph56%30.01 "Hg1 mi
8:30 AM59 °FFog.9 mph77%29.95 "Hg1 mi
8:00 PM
Sat, Feb 6
63 °FPartly cloudy.No wind68%29.92 "Hg1 mi
7:30 PM63 °FPartly cloudy.No wind68%29.92 "Hg2 mi
7:00 PM64 °FPartly cloudy.No wind64%29.89 "Hg2 mi
6:00 PM68 °FBroken clouds.No wind56%29.89 "Hg2 mi
5:30 PM72 °FBroken clouds.2 mph50%29.89 "Hg2 mi
5:00 PM72 °FBroken clouds.3 mph50%29.89 "Hg2 mi
4:30 PM73 °FBroken clouds.3 mph47%29.89 "Hg2 mi
4:00 PM73 °FBroken clouds.7 mph47%29.89 "Hg2 mi
3:30 PM75 °FBroken clouds.9 mph44%29.89 "Hg2 mi
2:30 PM75 °FScattered clouds.7 mph41%29.92 "Hg2 mi
2:00 PM77 °FScattered clouds.8 mph39%29.92 "Hg2 mi
Weather by CustomWeather, © 2016

See weather overviewHow to use our weather pages